• Processing (Info)

  • MPEC 2013-M03 : 2013 LH29

    The following Minor Planet Electronic Circular may be linked-to from your own Web pages, but must not otherwise be redistributed electronically.

    A form allowing access to any MPEC is at the bottom of this page.


    Read MPEC 2013-M02 Read MPEC 2013-M04


    M.P.E.C. 2013-M03                                Issued 2013 June 16, 16:06 UT
    
         The Minor Planet Electronic Circulars contain information on unusual
             minor planets and routine data on comets.  They are published
       on behalf of Commission 20 of the International Astronomical Union by the
              Minor Planet Center, Smithsonian Astrophysical Observatory,
                              Cambridge, MA 02138, U.S.A.
    
                 Prepared using the Tamkin Foundation Computer Network
    
                                  MPC@CFA.HARVARD.EDU
                URL http://www.minorplanetcenter.net/    ISSN 1523-6714
    
                                       2013 LH29
    
    Observations:
         K13L29H* C2013 06 14.38013 16 53 38.18 +03 26 25.5          20.6 VuEM003G96
         K13L29H  C2013 06 14.38708 16 53 37.93 +03 25 42.1          20.8 VuEM003G96
         K13L29H  C2013 06 14.39405 16 53 37.68 +03 24 59.3          20.8 VuEM003G96
         K13L29H  C2013 06 14.40105 16 53 37.46 +03 24 15.7          20.4 VuEM003G96
         K13L29H  C2013 06 14.43381 16 53 36.38 +03 20 51.4          21.2 VuEM003G96
         K13L29H  C2013 06 14.43448 16 53 36.34 +03 20 47.4          21.0 VuEM003G96
         K13L29H  C2013 06 14.43517 16 53 36.31 +03 20 42.7          21.3 VuEM003G96
         K13L29H  C2013 06 14.43585 16 53 36.31 +03 20 38.6          20.9 VuEM003G96
         K13L29H  C2013 06 15.32727 16 53 29.22 +01 44 17.8          20.5 VuEM003G96
         K13L29H  C2013 06 15.33364 16 53 28.93 +01 43 34.7          20.5 VuEM003G96
         K13L29H  C2013 06 15.34002 16 53 28.68 +01 42 51.1          20.4 VuEM003G96
         K13L29H  C2013 06 15.34648 16 53 28.39 +01 42 07.1          20.4 VuEM003G96
         K13L29H KC2013 06 15.97202 16 53 23.41 +00 28 59.6          19.5 RtEM003204
         K13L29H KC2013 06 15.97425116 53 24.06 +00 28 46.0          20.6 VvEM003I93
         K13L29H KC2013 06 15.98342416 53 23.64 +00 27 40.0          20.3 VvEM003I93
         K13L29H KC2013 06 15.99673 16 53 22.26 +00 26 04.2          20.2 RqEM003104
         K13L29H FC2013 06 15.99856 16 53 22.39 +00 25 48.9                tEM003204
         K13L29H KC2013 06 15.99950 16 53 22.12 +00 25 44.1          20.3 RqEM003104
         K13L29H KC2013 06 16.00504 16 53 21.97 +00 25 04.5          20.1 RqEM003104
         K13L29H  C2013 06 16.32167 16 53 19.15 -00 13 20.0          20.2 VuEM003G96
         K13L29H  C2013 06 16.32221 16 53 19.12 -00 13 24.2          20.4 VuEM003G96
    
    Observer details:
    104 San Marcello Pistoiese.  Observer P. Bacci.  Measurers P. Bacci, L. Tesi,
        G. Fagioli.  0.60-m f/4 reflector + CCD.
    204 Schiaparelli Observatory.  Observer L. Buzzi.  0.60-m f/4.64 reflector
        + CCD.
    G96 Mt. Lemmon Survey.  Observer J. A. Johnson.  Measurers A. Boattini,
        E. J. Christensen, A. R. Gibbs, A. D. Grauer, R. E. Hill, J. A. Johnson,
        R. A. Kowalski, S. M. Larson, R. H. McNaught, F. C. Shelly.  1.5-m
        reflector + CCD.
    I93 St Pardon de Conques.  Observer F. Losse.  0.40-m f/3.7 reflector + CCD.
    
    Orbital elements:
    2013 LH29                                                Earth MOID = 0.0566 AU
    Epoch 2013 Apr. 18.0 TT = JDT 2456400.5                 MPC
    M 308.18179              (2000.0)            P               Q
    n   0.54343028     Peri.  209.21361     +0.49398708     +0.83615914
    a   1.4872141      Node    91.32098     -0.74425817     +0.54837782
    e   0.2959642      Incl.   13.79340     -0.44950699     +0.01093897
    P   1.81           H   24.4           G   0.15           U   8
    Residuals in seconds of arc
    130614 G96  0.3-  0.2+    130614 G96  0.2+  0.2-    130615 I93  0.3-  0.4+
    130614 G96  0.1-  0.1-    130615 G96  0.0   0.2+    130615 104  0.0   0.1-
    130614 G96  0.1-  0.4+    130615 G96  0.3-  0.2+    130615 204  0.1-  0.0
    130614 G96  0.4+  0.2+    130615 G96  0.0   0.1-    130615 104  0.5-  0.2-
    130614 G96  0.3+  0.2-    130615 G96  0.3-  0.3-    130616 104  0.3+  0.2+
    130614 G96  0.0   0.0     130615 204  0.2+  0.5-    130616 G96  0.1+  0.1+
    130614 G96  0.1-  0.4-    130615 I93  0.6+  0.3+    130616 G96  0.0   0.1-
    
    Ephemeris:
    2013 LH29                a,e,i = 1.49, 0.30, 14                  q = 1.0471
    Date    TT    R. A. (2000) Decl.     Delta      r     Elong.  Phase     V
    2013 05 17    16 54 59.0 +19 23 34   0.2403  1.1974   136.7    35.4    23.1
    ...
    2013 06 01    16 55 58.0 +16 21 40   0.1591  1.1425   141.3    33.7    22.1
    ...
    2013 06 09    16 54 45.3 +10 40 13   0.1200  1.1169   146.3    30.3    21.3
    ...
    2013 06 15    16 53 34.3 +02 21 30   0.09378 1.0998   152.6    25.2    20.6
    2013 06 16    16 53 23.9 +00 26 54   0.08979 1.0972   153.9    24.0    20.5
    2013 06 17    16 53 14.4 -01 39 07   0.08595 1.0946   155.3    22.8    20.4
    ...
    2013 06 23    16 52 54.0 -19 09 20   0.06696 1.0803   162.3    16.6    19.6
    ...
    2013 07 01    16 56 46.6 -54 41 55   0.05962 1.0649   143.0    35.0    19.9
    ...
    2013 07 16    03 53 08.0 -80 39 21   0.09997 1.0486   106.1    68.6    21.9
    
    A. U. Tomatic                (C) Copyright 2013 MPC           M.P.E.C. 2013-M03
    

    Read MPEC 2013-M02 Read MPEC 2013-M04


    MPEC number:

    Enter an MPEC number in one of the following forms:

    • 1997-B01 (the full form)
    • J97B01 (the packed version of the full form)
    • B01 (the abbreviated form)